Probability
0 0 0 0 0 1 2 2 2 1 1 1 1 0 0 0 0 0 0 0 0 0 0 0 0 0 0 0 0 0 0 0 0 0 0 0 0 0 0 0 0 0 0
0 0 0 0 0 0 1 1 2 1 0 0 0 0 0 0 0 0 0 0 0 0 0 0 0 0 0 0 0 0 0 0 0 0 0 0 0 0 0 0 0 0 0
0 0 0 0 0 0 0 1 2 1 0 0 0 0 0 0 0 0 0 0 0 0 0 0 0 0 0 0 0 0 0 0 0 0 0 0 0 0 0 0 0 0 0
0 0 0 0 0 1 0 1 2 1 1 1 0 0 0 0 0 0 0 0 0 0 0 0 0 0 0 0 0 0 0 0 0 0 0 0 0 0 0 0 0 0 0
0 0 0 0 0 0 0 1 1 1 0 0 0 0 0 0 0 0 0 0 0 0 0 0 0 0 0 0 0 0 0 0 0 0 0 0 0 0 0 0 0 0 0
0 0 0 0 0 0 0 1 0 0 0 0 0 0 0 0 0 0 0 0 0 0 0 0 0 0 0 0 0 0 0 0 0 0 0 0 0 0 0 0 0 0 0
0 0 0 0 0 0 0 0 0 0 0 0 0 0 0 0 0 0 0 0 0 0 0 0 0 0 0 0 0 0 0 0 0 0 0 0 0 0 0 0 0 0 0
0 0 0 0 0 0 0 0 0 0 0 0 0 0 0 0 1 0 0 0 0 0 0 0 0 0 0 0 0 0 0 0 0 0 0 0 0 0 0 0 0 0 0
0 0 0 0 0 0 0 0 0 0 0 0 0 0 0 0 0 0 0 0 0 0 0 0 0 0 0 0 0 0 0 0 0 0 0 0 0 0 0 0 0 0 0
0 0 0 0 0 0 0 0 0 0 0 0 0 0 0 0 0 0 0 0 0 0 0 0 0 0 1 1 0 0 0 0 0 0 0 0 0 0 0 0 0 0 0
0 0 0 0 0 0 0 0 0 0 0 0 0 0 0 0 0 0 0 0 0 0 0 0 0 0 1 2 1 0 0 0 0 0 0 0 0 0 0 0 0 0 0
0 0 0 0 0 0 0 0 0 0 0 0 0 0 0 0 0 0 0 0 0 0 0 0 0 0 2 3 2 1 1 0 0 0 0 0 0 0 0 0 0 0 0
0 0 0 0 0 0 0 0 0 0 0 0 0 0 0 0 0 0 0 0 0 0 0 0 0 0 1 2 2 1 0 0 0 0 0 0 0 0 0 0 0 0 0
0 0 0 0 0 0 0 0 0 0 0 0 0 0 0 0 0 0 0 0 0 0 0 0 0 0 1 1 1 0 0 0 0 0 0 0 0 0 0 0 0 0 0
0 0 0 0 0 0 0 0 0 0 0 0 0 0 0 0 0 0 0 0 0 0 0 0 0 0 0 0 0 0 0 0 0 0 0 0 0 0 0 0 0 0 0
0 0 0 0 0 0 0 0 0 0 0 0 0 0 0 0 0 0 0 0 0 0 0 0 0 0 0 0 0 0 0 0 0 0 0 0 0 0 0 0 0 0 0
0 0 0 0 0 0 0 0 0 0 0 0 0 0 0 0 0 0 0 0 0 0 0 0 0 0 0 0 0 0 0 0 0 0 0 0 0 0 0 0 0 0 0
0 0 0 0 0 0 0 0 0 0 0 0 0 0 0 0 0 0 0 0 0 0 0 0 0 0 0 0 0 0 0 0 0 0 0 0 0 0 0 0 0 0 1
0 0 0 0 0 0 0 0 0 0 0 0 0 0 0 0 0 0 0 0 0 0 0 0 0 0 0 0 0 0 0 0 0 0 0 0 0 0 0 0 0 0 1
0 0 0 0 0 0 0 0 0 0 0 0 0 0 0 0 0 0 0 0 0 0 0 0 0 0 0 0 0 0 0 0 0 0 0 0 0 0 0 0 0 0 1
0 0 0 0 0 0 0 0 0 0 0 0 0 0 0 0 0 0 0 0 0 0 0 0 0 0 0 0 0 0 0 0 0 0 0 0 0 0 0 0 0 0 0
0 0 0 0 0 0 0 0 0 0 0 0 0 0 0 0 0 0 0 0 0 0 0 0 0 0 0 0 0 0 0 0 0 0 0 0 0 0 0 0 0 0 0
0 0 0 0 0 0 0 0 0 0 0 0 0 0 0 0 0 0 0 0 0 0 0 0 0 0 0 0 0 0 0 0 0 0 0 0 0 0 0 0 0 0 0
0 0 0 0 0 0 0 0 0 0 0 0 0 0 0 0 0 0 0 0 0 0 0 0 0 0 0 0 0 0 0 0 0 0 0 0 0 0 0 0 0 0 0
0 0 0 0 0 0 0 0 0 0 0 0 0 0 0 0 0 0 0 0 0 0 0 0 0 0 0 0 0 0 0 0 0 0 0 0 0 0 0 0 0 0 0
0 0 0 0 1 1 1 0 0 0 0 0 0 0 0 0 0 0 0 0 0 0 0 0 0 0 0 0 0 0 0 0 0 0 0 0 0 0 0 0 0 0 0
Wind_Speed
6 7 9 8 9 9 10 11 12 12 12 12 11 11 10 10 10 10 9 9 9 9 9 9 9 8 8 8 8 7 7 7 7 7 6 6 6 7 6 5 3 5 7
9 9 10 9 9 10 10 11 12 12 11 11 10 10 10 9 9 9 9 9 9 9 8 8 8 8 8 7 7 7 7 7 6 6 5 6 7 7 7 6 5 5 6
10 9 10 9 9 10 11 12 12 12 11 11 10 10 9 9 9 9 8 8 8 8 8 8 8 7 7 7 7 6 6 6 6 4 1 3 6 7 6 6 6 6 5
9 8 8 10 10 10 11 11 12 11 11 11 10 10 9 9 8 8 8 8 8 8 8 8 8 7 7 6 6 6 6 5 4 1 1 4 4 7 6 6 5 5 4
9 8 9 10 11 10 11 11 11 11 10 10 10 9 9 8 8 7 7 7 7 7 7 7 7 7 7 6 6 6 5 5 2 1 4 4 4 6 5 5 5 4 4
10 9 10 10 11 11 11 11 11 10 10 9 9 8 7 7 7 7 7 7 6 6 7 6 6 6 6 7 7 6 6 2 3 3 3 3 4 6 4 4 4 4 4
10 10 11 10 10 10 10 10 10 10 9 8 8 8 7 7 7 7 6 6 6 6 5 5 5 6 6 6 6 6 5 2 2 3 3 4 5 5 4 3 3 3 3
10 10 11 11 10 10 10 10 10 9 9 8 8 8 7 7 7 7 6 6 6 5 5 5 5 5 5 5 5 5 3 4 2 3 3 4 6 4 3 3 3 3 2
9 9 8 9 10 11 10 9 9 9 8 8 8 7 7 7 6 6 6 5 5 5 5 5 5 5 5 5 5 4 3 3 1 1 2 4 5 3 3 3 3 3 2
8 8 7 7 7 7 9 10 9 9 8 8 8 7 5 5 5 4 4 5 4 5 5 6 6 6 6 5 5 3 0 4 1 2 2 5 5 3 3 3 3 3 2
7 6 6 6 6 6 7 8 8 8 7 6 7 6 2 3 4 4 7 6 5 5 6 6 6 5 5 6 4 1 3 0 2 2 3 7 4 3 4 4 4 3 3
7 6 5 5 6 6 5 5 4 5 5 4 5 5 3 4 3 3 7 5 5 4 5 5 4 4 3 3 5 4 1 1 2 3 5 6 5 4 4 4 4 3 3
6 5 5 5 5 5 4 4 3 3 3 4 5 5 3 3 2 2 2 4 4 3 3 4 4 2 2 2 1 2 3 2 2 3 6 6 5 5 5 4 4 3 3
6 5 4 5 5 5 5 4 3 3 3 3 3 5 3 3 2 3 2 3 2 2 2 1 1 2 2 2 2 3 3 1 2 3 6 7 6 6 6 5 5 4 3
6 5 5 4 5 5 5 3 3 4 3 4 3 3 4 3 3 3 2 2 2 2 2 1 1 3 2 3 3 3 3 3 3 4 5 8 7 7 7 7 6 5 5
5 5 5 4 4 4 5 4 4 4 3 3 3 3 4 3 3 2 3 2 3 2 2 1 3 2 2 2 3 4 3 3 4 4 4 6 7 8 7 7 7 7 6
6 6 6 5 4 4 5 4 3 3 3 3 3 3 4 3 3 2 2 3 2 2 2 2 3 2 2 3 3 3 3 4 4 4 4 3 4 8 9 8 8 7 7
6 6 6 5 4 5 4 3 3 3 3 3 3 2 3 3 3 3 2 3 2 2 2 2 2 2 3 2 3 3 3 3 4 4 3 3 4 4 7 9 9 8 8
6 7 7 6 5 5 4 3 3 3 2 2 2 2 2 3 2 3 2 2 2 2 2 2 2 2 3 3 4 3 4 4 4 4 5 6 5 4 4 7 8 9 9
7 7 7 6 5 5 4 3 3 3 2 2 3 3 3 2 3 3 2 2 2 2 2 2 4 3 2 2 4 4 4 4 4 5 5 5 5 6 6 5 4 6 9
8 7 7 7 6 5 3 3 2 3 2 2 3 3 3 2 2 3 1 2 2 2 2 3 3 4 3 2 3 4 4 5 6 5 4 4 6 6 6 6 5 4 4
8 8 8 7 6 6 3 3 2 2 2 3 2 3 3 3 3 2 2 2 2 2 2 3 2 2 2 1 1 1 3 3 3 5 4 4 5 5 6 7 6 6 5
9 8 7 7 7 6 6 4 3 3 2 2 3 2 3 3 3 2 2 2 2 2 3 2 2 2 2 2 2 2 1 2 2 3 5 4 5 5 5 6 6 7 6
9 8 8 7 7 7 7 5 5 3 2 2 2 2 3 3 3 3 3 2 2 3 3 2 2 1 1 2 2 2 3 2 1 2 2 4 5 5 5 5 5 6 6
9 8 7 8 7 7 6 5 4 3 3 2 2 3 3 3 3 3 3 2 3 2 3 3 2 2 1 1 1 1 2 1 1 0 2 2 3 4 5 5 5 5 6
8 8 7 8 7 6 6 6 5 5 4 4 3 3 2 2 2 3 3 2 3 3 3 2 2 3 2 2 1 1 1 1 1 1 1 2 2 3 4 4 4 4 4
Wind_Direction
130 125 120 124 125 121 115 115 116 114 111 108 107 105 104 101 97 95 94 91 88 87 85 83 84 84 85 84 81 81 83 85 87 82 79 76 78 83 81 78 84 91 79
128 124 123 124 125 119 115 112 112 109 106 105 103 102 102 99 95 93 92 89 87 85 84 84 83 83 83 82 81 79 80 79 82 79 82 98 86 81 79 69 46 70 81
125 125 127 121 117 116 114 112 110 108 107 105 104 102 102 98 96 92 91 89 86 84 83 82 82 84 83 79 76 77 78 79 78 85 155 103 99 85 78 74 72 79 79
119 121 119 120 118 118 116 113 109 108 107 105 102 101 100 96 96 91 90 86 83 81 81 82 81 81 80 79 73 71 77 80 82 216 161 83 86 87 76 69 71 75 76
116 119 118 126 124 122 118 114 110 107 106 104 101 99 98 95 93 91 89 86 82 78 77 78 77 76 74 76 75 72 73 82 116 229 74 75 75 80 73 67 65 64 69
116 115 113 118 115 116 115 113 111 107 106 103 102 100 97 95 92 88 85 81 79 76 74 71 72 73 73 70 69 69 68 74 217 89 87 85 80 78 70 64 62 58 63
113 112 113 111 109 112 110 108 107 104 103 101 98 95 90 89 86 85 83 82 79 78 74 70 71 73 74 69 68 69 61 350 57 88 88 82 73 68 63 53 56 53 55
108 110 113 113 109 111 109 108 107 105 103 102 100 96 91 88 87 85 84 82 80 79 75 73 75 81 82 79 74 71 46 313 104 89 87 82 70 68 61 47 47 41 39
106 106 108 114 113 113 108 103 101 100 100 99 96 92 87 82 79 78 84 82 81 80 78 78 80 87 91 90 83 76 61 339 350 79 88 80 71 57 48 39 36 31 30
105 107 109 110 114 118 117 106 99 95 93 93 88 83 92 115 108 99 105 83 82 82 81 80 81 85 90 87 81 79 159 248 65 93 68 79 65 48 41 36 27 22 21
105 107 111 113 108 103 104 110 115 109 99 115 108 101 137 107 103 119 69 71 80 83 84 83 87 93 109 112 99 131 241 167 91 56 58 60 52 44 39 36 25 19 25
123 122 121 121 116 107 101 109 107 107 107 94 84 87 76 71 65 63 101 89 89 97 112 95 113 164 206 129 136 205 150 94 105 83 71 56 53 45 36 32 26 22 22
127 123 119 120 112 108 107 101 95 91 92 91 88 90 74 74 100 92 103 126 123 154 118 131 182 130 96 76 71 82 51 36 59 69 73 55 47 43 37 40 38 28 16
132 124 122 122 113 107 105 102 107 102 93 85 80 73 70 62 58 70 73 69 78 84 83 89 68 87 80 95 86 81 95 65 59 68 73 50 35 34 39 45 39 34 21
138 134 124 120 107 104 95 96 103 95 89 91 75 71 69 65 70 79 80 73 67 78 106 93 79 77 73 67 65 69 75 70 64 61 83 68 44 37 39 46 46 43 39
146 135 126 126 109 109 110 108 93 97 98 81 76 68 63 63 62 66 73 64 59 61 63 79 80 83 82 74 67 63 56 68 69 64 71 93 71 48 45 45 43 43 45
149 140 133 132 125 113 101 96 99 98 94 90 81 66 66 56 46 59 59 73 67 75 85 63 81 83 86 97 90 75 70 53 62 66 60 53 82 78 60 50 44 44 46
153 146 141 145 141 123 113 113 107 96 88 89 86 66 59 61 54 58 59 75 74 72 77 78 74 95 93 89 85 81 85 75 67 64 66 63 47 60 76 63 53 48 47
161 155 153 150 146 130 123 120 106 101 87 79 73 64 51 54 52 70 54 59 77 78 81 84 79 81 94 94 98 87 78 74 68 58 53 49 53 46 58 85 79 62 51
165 159 155 150 150 137 134 131 122 102 91 75 66 59 41 43 52 68 80 76 74 91 93 96 98 89 89 98 93 86 79 79 70 52 46 50 43 44 44 49 70 84 70
171 167 160 162 155 149 145 152 144 126 106 85 70 64 60 54 58 70 64 69 62 88 99 107 105 114 106 103 114 108 97 75 67 61 42 45 54 47 49 53 44 40 75
174 173 168 168 166 162 154 146 134 118 98 76 72 66 51 59 58 61 81 90 90 94 104 96 102 106 102 86 107 132 130 117 71 56 56 46 47 53 47 46 47 46 35
179 175 176 174 168 166 159 149 143 134 143 128 104 79 52 54 63 60 67 73 85 103 97 87 116 126 116 93 24 343 342 79 107 77 53 58 52 47 48 44 42 43 38
182 178 180 175 169 167 167 168 164 162 137 107 95 93 86 67 65 63 74 74 81 81 93 96 73 84 106 117 95 17 20 39 306 128 98 64 53 51 46 42 37 40 38
177 177 177 172 170 169 171 164 174 160 131 118 114 108 95 80 68 71 65 72 79 81 80 70 69 52 60 44 71 82 75 66 317 29 105 97 76 58 50 41 39 34 34
167 171 172 172 167 168 174 173 173 157 151 143 135 119 111 100 83 81 77 81 87 84 86 81 84 79 50 54 42 51 41 39 27 25 88 111 89 69 58 49 37 33 29